Location: Newark
(41.6500°N, 71.4833°W)
Time: 20:39:21
(UTC+00:00)

Tiros 1 - Pass Details

Date: 24 January 2020
Orbit: 631 x 664 km, 48.4° (Epoch: 26 February)

Event Time Altitude Azimuth Distance (km) Brightness Sun altitude
Rises 01:09:49 0° 288° (WNW) 2,987 11.5 -37.2°
Reaches altitude 10° 01:12:43 10° 271° (W) 2,075 10.5 -37.7°
Enters shadow 01:14:08 15° 256° (WSW) 1,746 9.9 -38.0°
